Year,Month,Day,Hour,Minute,Value (Times are PST for temperature in C)
2006,02,28,00,00,4.40
2006,02,28,00,01,4.40
2006,02,28,00,02,4.40
2006,02,28,00,03,4.40
2006,02,28,00,04,4.40
2006,02,28,00,05,4.40
2006,02,28,00,06,4.40
2006,02,28,00,07,4.40
2006,02,28,00,08,4.40
2006,02,28,00,09,4.40
2006,02,28,00,10,4.40
2006,02,28,00,11,4.40
2006,02,28,00,12,4.40
2006,02,28,00,13,4.40
2006,02,28,00,14,4.30
2006,02,28,00,15,4.30
2006,02,28,00,16,4.30
2006,02,28,00,17,4.30
2006,02,28,00,18,4.30
2006,02,28,00,19,4.30
2006,02,28,00,20,4.30
2006,02,28,00,21,4.30
2006,02,28,00,22,4.30
2006,02,28,00,23,4.30
2006,02,28,00,24,4.30
2006,02,28,00,25,4.30
2006,02,28,00,26,4.30
2006,02,28,00,27,4.30
2006,02,28,00,28,4.30
2006,02,28,00,29,4.30
2006,02,28,00,30,4.30
2006,02,28,00,31,4.30
2006,02,28,00,32,4.30
2006,02,28,00,33,4.30
2006,02,28,00,34,4.30
2006,02,28,00,35,4.30
2006,02,28,00,36,4.30
2006,02,28,00,37,4.30
2006,02,28,00,38,4.30
2006,02,28,00,39,4.30
2006,02,28,00,40,4.30
2006,02,28,00,41,4.30
2006,02,28,00,42,4.30
2006,02,28,00,43,4.30
2006,02,28,00,44,4.20
2006,02,28,00,45,4.20
2006,02,28,00,46,4.20
2006,02,28,00,47,4.20
2006,02,28,00,48,4.20
2006,02,28,00,49,4.20
2006,02,28,00,50,4.20
2006,02,28,00,51,4.20
2006,02,28,00,52,4.20
2006,02,28,00,53,4.20
2006,02,28,00,54,4.20
2006,02,28,00,55,4.20
2006,02,28,00,56,4.20
2006,02,28,00,57,4.20
2006,02,28,00,58,4.20
2006,02,28,00,59,4.20
2006,02,28,01,00,4.20
2006,02,28,01,01,4.20
2006,02,28,01,02,4.20
2006,02,28,01,03,4.20
2006,02,28,01,04,4.20
2006,02,28,01,05,4.20
2006,02,28,01,06,4.20
2006,02,28,01,07,4.20
2006,02,28,01,08,4.20
2006,02,28,01,09,4.20
2006,02,28,01,10,4.20
2006,02,28,01,11,4.20
2006,02,28,01,12,4.20
2006,02,28,01,13,4.20
2006,02,28,01,14,4.20
2006,02,28,01,15,4.20
2006,02,28,01,16,4.20
2006,02,28,01,17,4.20
2006,02,28,01,18,4.20
2006,02,28,01,19,4.20
2006,02,28,01,20,4.20
2006,02,28,01,21,4.20
2006,02,28,01,22,4.20
2006,02,28,01,23,4.20
2006,02,28,01,24,4.20
2006,02,28,01,25,4.20
2006,02,28,01,26,4.20
2006,02,28,01,27,4.20
2006,02,28,01,28,4.20
2006,02,28,01,29,4.10
2006,02,28,01,30,4.10
2006,02,28,01,31,4.10
2006,02,28,01,32,4.10
2006,02,28,01,33,4.10
2006,02,28,01,34,4.10
2006,02,28,01,35,4.10
2006,02,28,01,36,4.10
2006,02,28,01,37,4.10
2006,02,28,01,38,4.10
2006,02,28,01,39,4.10
2006,02,28,01,40,4.10
2006,02,28,01,41,4.10
2006,02,28,01,42,4.10
2006,02,28,01,43,4.10
2006,02,28,01,44,4.10
2006,02,28,01,45,4.10
2006,02,28,01,46,4.00
2006,02,28,01,47,4.00
2006,02,28,01,48,4.00
2006,02,28,01,49,4.00
2006,02,28,01,50,4.00
2006,02,28,01,51,4.00
2006,02,28,01,52,4.00
2006,02,28,01,53,4.00
2006,02,28,01,54,4.00
2006,02,28,01,55,4.00
2006,02,28,01,56,4.00
2006,02,28,01,57,4.00
2006,02,28,01,58,4.00
2006,02,28,01,59,4.00
2006,02,28,02,00,4.00
2006,02,28,02,01,4.00
2006,02,28,02,02,4.00
2006,02,28,02,03,4.00
2006,02,28,02,04,4.00
2006,02,28,02,05,4.00
2006,02,28,02,06,4.00
2006,02,28,02,07,4.00
2006,02,28,02,08,4.00
2006,02,28,02,09,4.00
2006,02,28,02,10,4.00
2006,02,28,02,11,4.00
2006,02,28,02,12,4.00
2006,02,28,02,13,4.00
2006,02,28,02,14,4.00
2006,02,28,02,15,4.00
2006,02,28,02,16,4.00
2006,02,28,02,17,4.00
2006,02,28,02,18,3.90
2006,02,28,02,19,3.90
2006,02,28,02,20,3.90
2006,02,28,02,21,3.90
2006,02,28,02,22,3.90
2006,02,28,02,23,3.90
2006,02,28,02,24,3.90
2006,02,28,02,25,3.90
2006,02,28,02,26,3.90
2006,02,28,02,27,3.90
2006,02,28,02,28,3.90
2006,02,28,02,29,3.90
2006,02,28,02,30,3.90
2006,02,28,02,31,3.90
2006,02,28,02,32,3.90
2006,02,28,02,33,3.90
2006,02,28,02,34,3.90
2006,02,28,02,35,3.80
2006,02,28,02,36,3.80
2006,02,28,02,37,3.80
2006,02,28,02,38,3.80
2006,02,28,02,39,3.80
2006,02,28,02,40,3.80
2006,02,28,02,41,3.80
2006,02,28,02,42,3.80
2006,02,28,02,43,3.80
2006,02,28,02,44,3.80
2006,02,28,02,45,3.80
2006,02,28,02,46,3.90
2006,02,28,02,47,3.90
2006,02,28,02,48,3.90
2006,02,28,02,49,3.90
2006,02,28,02,50,3.90
2006,02,28,02,51,3.90
2006,02,28,02,52,3.90
2006,02,28,02,53,3.90
2006,02,28,02,54,3.90
2006,02,28,02,55,3.90
2006,02,28,02,56,3.90
2006,02,28,02,57,3.90
2006,02,28,02,58,4.00
2006,02,28,02,59,4.00
2006,02,28,03,00,4.00
2006,02,28,03,01,4.00
2006,02,28,03,02,4.00
2006,02,28,03,03,4.00
2006,02,28,03,04,4.00
2006,02,28,03,05,4.00
2006,02,28,03,06,4.00
2006,02,28,03,07,4.00
2006,02,28,03,08,4.00
2006,02,28,03,09,4.00
2006,02,28,03,10,4.00
2006,02,28,03,11,4.00
2006,02,28,03,12,4.00
2006,02,28,03,13,4.00
2006,02,28,03,14,4.00
2006,02,28,03,15,4.00
2006,02,28,03,16,4.00
2006,02,28,03,17,4.00
2006,02,28,03,18,4.00
2006,02,28,03,19,4.00
2006,02,28,03,20,4.00
2006,02,28,03,21,4.00
2006,02,28,03,22,4.00
2006,02,28,03,23,4.00
2006,02,28,03,24,4.00
2006,02,28,03,25,4.00
2006,02,28,03,26,4.00
2006,02,28,04,15,4.10
2006,02,28,04,16,4.10
2006,02,28,04,17,4.10
2006,02,28,04,18,4.00
2006,02,28,04,19,4.00
2006,02,28,04,20,4.00
2006,02,28,04,21,4.00
2006,02,28,04,22,4.00
2006,02,28,04,23,4.00
2006,02,28,04,24,4.00
2006,02,28,04,25,4.00
2006,02,28,04,26,4.00
2006,02,28,04,27,4.00
2006,02,28,04,28,4.00
2006,02,28,04,29,4.00
2006,02,28,04,30,4.00
2006,02,28,04,31,4.00
2006,02,28,04,32,4.00
2006,02,28,04,33,4.00
2006,02,28,04,34,4.00
2006,02,28,04,35,4.00
2006,02,28,04,36,4.00
2006,02,28,04,37,4.00
2006,02,28,04,38,4.00
2006,02,28,04,39,4.00
2006,02,28,04,40,4.00
2006,02,28,04,41,4.00
2006,02,28,04,42,4.00
2006,02,28,04,43,4.00
2006,02,28,04,44,4.00
2006,02,28,04,45,4.00
2006,02,28,04,46,4.00
2006,02,28,04,47,4.00
2006,02,28,04,48,4.00
2006,02,28,04,49,4.00
2006,02,28,04,50,4.00
2006,02,28,04,51,4.00
2006,02,28,04,52,4.00
2006,02,28,04,53,4.00
2006,02,28,04,54,4.00
2006,02,28,04,55,4.00
2006,02,28,04,56,4.00
2006,02,28,04,57,4.00
2006,02,28,04,58,4.00
2006,02,28,04,59,4.00
2006,02,28,05,00,4.00
2006,02,28,05,01,4.00
2006,02,28,05,02,4.00
2006,02,28,05,03,4.00
2006,02,28,05,04,4.00
2006,02,28,05,05,4.00
2006,02,28,05,06,4.00
2006,02,28,05,07,4.00
2006,02,28,05,08,4.00
2006,02,28,05,09,4.00
2006,02,28,05,10,4.00
2006,02,28,05,11,4.00
2006,02,28,05,12,4.00
2006,02,28,05,13,4.00
2006,02,28,05,14,4.00
2006,02,28,05,15,4.00
2006,02,28,05,16,4.00
2006,02,28,05,17,4.00
2006,02,28,05,18,4.00
2006,02,28,05,19,4.10
2006,02,28,05,20,4.10
2006,02,28,05,21,4.10
2006,02,28,05,22,4.10
2006,02,28,05,23,4.10
2006,02,28,05,24,4.10
2006,02,28,05,25,4.10
2006,02,28,05,26,4.10
2006,02,28,05,27,4.10
2006,02,28,05,28,4.10
2006,02,28,05,29,4.10
2006,02,28,05,30,4.10
2006,02,28,05,31,4.10
2006,02,28,05,32,4.10
2006,02,28,05,33,4.10
2006,02,28,05,34,4.10
2006,02,28,05,35,4.10
2006,02,28,05,36,4.20
2006,02,28,05,37,4.20
2006,02,28,05,38,4.20
2006,02,28,05,39,4.20
2006,02,28,05,40,4.20
2006,02,28,05,41,4.20
2006,02,28,05,42,4.20
2006,02,28,05,43,4.20
2006,02,28,05,44,4.20
2006,02,28,05,45,4.20
2006,02,28,05,46,4.20
2006,02,28,05,47,4.20
2006,02,28,05,48,4.20
2006,02,28,05,49,4.20
2006,02,28,05,50,4.20
2006,02,28,05,51,4.20
2006,02,28,05,52,4.20
2006,02,28,05,53,4.20
2006,02,28,05,54,4.20
2006,02,28,05,55,4.20
2006,02,28,05,56,4.20
2006,02,28,05,57,4.20
2006,02,28,05,58,4.20
2006,02,28,05,59,4.20
2006,02,28,06,00,4.20
2006,02,28,06,01,4.20
2006,02,28,06,02,4.20
2006,02,28,06,03,4.20
2006,02,28,06,04,4.20
2006,02,28,06,05,4.20
2006,02,28,06,06,4.20
2006,02,28,06,07,4.20
2006,02,28,06,08,4.20
2006,02,28,06,09,4.20
2006,02,28,06,10,4.20
2006,02,28,06,11,4.20
2006,02,28,06,12,4.20
2006,02,28,06,13,4.20
2006,02,28,06,14,4.20
2006,02,28,06,15,4.30
2006,02,28,06,16,4.30
2006,02,28,06,17,4.30
2006,02,28,06,18,4.30
2006,02,28,06,19,4.30
2006,02,28,06,20,4.30
2006,02,28,06,21,4.40
2006,02,28,06,22,4.40
2006,02,28,06,23,4.40
2006,02,28,06,24,4.40
2006,02,28,06,25,4.40
2006,02,28,06,26,4.40
2006,02,28,06,27,4.50
2006,02,28,06,28,4.50
2006,02,28,06,29,4.50
2006,02,28,06,30,4.50
2006,02,28,06,31,4.50
2006,02,28,06,32,4.50
2006,02,28,06,33,4.60
2006,02,28,06,34,4.60
2006,02,28,06,35,4.60
2006,02,28,06,36,4.60
2006,02,28,06,37,4.60
2006,02,28,06,38,4.60
2006,02,28,06,39,4.60
2006,02,28,06,40,4.60
2006,02,28,06,41,4.60
2006,02,28,06,42,4.60
2006,02,28,06,43,4.60
2006,02,28,06,44,4.60
2006,02,28,06,45,4.60
2006,02,28,06,46,4.60
2006,02,28,06,47,4.60
2006,02,28,06,48,4.60
2006,02,28,06,49,4.60
2006,02,28,06,50,4.60
2006,02,28,07,23,5.10
2006,02,28,07,24,5.10
2006,02,28,07,25,5.10
2006,02,28,07,26,5.10
2006,02,28,07,27,5.00
2006,02,28,07,28,5.00
2006,02,28,07,29,4.90
2006,02,28,07,30,4.90
2006,02,28,07,31,4.90
2006,02,28,07,32,4.90
2006,02,28,07,33,4.90
2006,02,28,07,34,4.90
2006,02,28,07,35,4.90
2006,02,28,07,36,4.90
2006,02,28,07,37,4.90
2006,02,28,07,38,4.90
2006,02,28,07,39,4.90
2006,02,28,07,40,4.90
2006,02,28,07,41,4.90
2006,02,28,07,42,4.90
2006,02,28,07,43,4.90
2006,02,28,07,44,4.90
2006,02,28,07,45,4.90
2006,02,28,07,46,4.90
2006,02,28,07,47,4.90
2006,02,28,07,48,4.90
2006,02,28,07,49,4.90
2006,02,28,07,50,4.90
2006,02,28,07,51,4.90
2006,02,28,07,52,4.90
2006,02,28,07,53,4.90
2006,02,28,07,54,4.90
2006,02,28,07,55,4.90
2006,02,28,07,56,5.00
2006,02,28,07,57,5.10
2006,02,28,07,58,5.10
2006,02,28,07,59,5.10
2006,02,28,08,00,5.10
2006,02,28,08,01,5.10
2006,02,28,08,02,5.10
2006,02,28,08,03,5.10
2006,02,28,08,04,5.10
2006,02,28,08,05,5.10
2006,02,28,08,06,5.10
2006,02,28,08,07,5.10
2006,02,28,08,08,5.10
2006,02,28,08,09,5.10
2006,02,28,08,10,5.10
2006,02,28,08,11,5.10
2006,02,28,08,12,5.10
2006,02,28,08,13,5.10
2006,02,28,08,14,5.10
2006,02,28,08,15,5.10
2006,02,28,08,16,5.10
2006,02,28,12,17,6.70
2006,02,28,12,18,6.70
2006,02,28,12,19,6.70
2006,02,28,12,20,6.60
2006,02,28,12,21,6.60
2006,02,28,12,22,6.50
2006,02,28,12,23,6.40
2006,02,28,12,24,6.30
2006,02,28,12,25,6.10
2006,02,28,12,26,5.90
2006,02,28,12,27,5.80
2006,02,28,12,28,5.80
2006,02,28,12,29,5.80
2006,02,28,12,30,5.80
2006,02,28,12,31,5.80
2006,02,28,12,32,5.80
2006,02,28,12,33,5.80
2006,02,28,12,34,5.80
2006,02,28,12,35,5.80
2006,02,28,12,36,5.80
2006,02,28,12,37,5.80
2006,02,28,12,38,5.80
2006,02,28,15,44,6.80
2006,02,28,15,45,6.80
2006,02,28,15,46,6.80
2006,02,28,15,47,6.80
2006,02,28,15,48,6.80
2006,02,28,15,49,6.80
2006,02,28,15,50,6.80
2006,02,28,15,51,6.70
2006,02,28,15,52,6.70
2006,02,28,15,53,6.70
2006,02,28,15,54,6.80
2006,02,28,15,55,6.80
2006,02,28,15,56,6.80
2006,02,28,15,57,6.80
2006,02,28,15,58,6.80
2006,02,28,15,59,6.80
2006,02,28,16,00,6.80
2006,02,28,16,01,6.70
2006,02,28,16,02,6.70
2006,02,28,16,03,6.60
2006,02,28,16,04,6.60
2006,02,28,16,05,6.60
2006,02,28,16,06,6.60
2006,02,28,16,07,6.60
2006,02,28,16,08,6.60
2006,02,28,16,09,6.60
2006,02,28,16,10,6.60
2006,02,28,16,11,6.60
2006,02,28,16,12,6.60
2006,02,28,16,13,6.60
2006,02,28,16,14,6.60
2006,02,28,16,15,6.60
2006,02,28,16,16,6.60
2006,02,28,16,17,6.60
2006,02,28,16,18,6.60
2006,02,28,22,14,4.80
2006,02,28,22,15,4.80
2006,02,28,22,16,4.80
2006,02,28,22,17,4.80
2006,02,28,22,18,4.80
2006,02,28,22,19,4.80
2006,02,28,22,20,4.80
2006,02,28,22,21,4.80
2006,02,28,22,22,4.80
2006,02,28,22,23,4.80
2006,02,28,22,24,4.80
2006,02,28,22,25,4.80
2006,02,28,22,26,4.80
2006,02,28,22,27,4.80
2006,02,28,22,28,4.80
2006,02,28,22,29,4.80
2006,02,28,22,30,4.80
2006,02,28,22,31,4.80
2006,02,28,22,32,4.90
2006,02,28,22,33,4.90
2006,02,28,22,34,4.90
2006,02,28,22,35,4.90
2006,02,28,22,36,4.90
2006,02,28,22,37,4.90
2006,02,28,22,38,4.90
2006,02,28,22,39,4.90
2006,02,28,22,40,4.90
2006,02,28,22,41,4.90
2006,02,28,22,42,4.90
2006,02,28,22,43,4.90
2006,02,28,22,44,4.90
